Theta_e
340 341 339 342 342 341 339 339 339 339 339 338 338 336 335 334 333 331 329 327 327 330 331 321 322 330 335 336 325 325 317 317 320 319 330 331 329 325 332 331 336 333 335
340 340 339 341 341 341 339 339 338 338 338 338 338 337 336 335 334 333 331 330 326 328 338 337 325 324 327 335 334 329 326 317 315 315 318 335 337 336 333 337 338 337 334
337 337 338 340 341 342 339 338 338 338 338 339 339 339 338 335 333 333 333 333 330 327 328 337 340 340 330 326 324 327 327 324 316 315 316 329 331 335 336 337 335 330 323
332 336 336 338 340 341 340 337 336 337 337 337 338 339 339 338 335 333 333 332 333 332 327 327 332 335 338 337 332 328 325 321 321 316 322 326 328 325 322 323 320 316 313
328 335 336 337 338 340 339 339 338 337 336 336 336 336 336 336 335 335 335 334 335 334 333 328 326 325 330 337 336 335 325 321 320 319 319 327 324 327 325 315 313 312 313
327 334 336 335 336 338 337 337 338 338 338 337 338 337 335 335 335 336 335 334 332 331 331 333 331 327 327 335 337 337 334 329 318 320 321 330 327 321 321 317 314 314 314
331 333 332 333 333 333 334 335 335 336 336 335 335 337 338 338 336 335 335 335 335 334 332 332 333 332 331 332 336 336 335 334 334 320 320 329 328 325 320 317 316 316 314
316 315 314 318 321 327 331 332 331 331 332 332 333 331 335 337 337 337 337 337 337 336 335 333 332 333 333 332 331 332 333 334 333 334 327 326 328 326 324 318 317 316 317
311 311 310 309 309 308 308 311 318 326 329 330 330 329 331 330 330 335 336 336 336 336 336 336 334 333 332 333 333 332 332 332 331 331 334 332 331 328 321 318 318 317 320
311 310 309 309 308 308 308 308 308 307 308 308 310 313 320 326 329 328 330 331 335 336 335 335 335 334 334 333 332 332 332 332 330 331 331 333 331 330 326 320 318 318 327
310 309 309 309 309 309 309 309 308 308 308 308 308 308 307 309 319 324 328 325 328 329 330 331 329 331 333 334 333 332 332 332 333 333 332 333 334 335 333 324 317 318 319
310 309 310 310 310 310 310 309 309 309 309 309 309 308 308 308 308 308 309 314 317 320 324 323 326 327 328 329 333 335 335 334 334 335 335 335 334 334 335 333 324 316 318
310 310 311 311 310 310 311 311 310 310 310 309 310 309 309 309 310 310 309 311 314 316 320 322 328 328 328 330 333 333 334 334 334 334 334 333 334 334 334 334 332 326 318
311 311 311 311 311 312 312 312 312 311 312 312 311 310 310 310 311 311 311 313 315 316 315 316 319 322 326 326 327 325 327 331 333 332 332 333 334 334 334 333 334 332 329
311 312 312 311 312 312 312 312 312 312 313 312 311 310 310 310 310 311 312 314 315 318 319 319 319 319 319 320 324 326 328 325 323 325 326 329 330 332 333 333 333 332 332
312 312 312 312 312 312 312 311 311 311 311 312 311 310 310 310 310 309 309 310 311 314 317 319 319 320 320 320 319 318 320 323 325 326 323 322 324 328 330 332 333 333 332
312 312 312 312 312 312 312 310 311 312 311 312 314 312 310 310 309 310 312 318 315 317 317 317 319 319 318 318 321 318 317 320 322 322 322 321 324 327 328 329 331 333 333
311 312 312 312 312 312 312 310 311 312 311 312 314 313 312 312 312 312 312 313 314 316 316 315 317 317 318 319 319 315 319 320 318 320 322 327 327 326 327 327 327 329 330
311 311 312 312 312 312 312 310 312 314 312 312 314 312 312 312 312 313 313 313 313 313 313 313 314 317 316 315 315 315 320 321 322 324 324 324 323 324 326 325 326 326 325
311 311 312 312 312 312 311 311 315 314 312 312 313 312 313 313 313 313 313 312 313 312 312 312 313 313 314 314 314 314 315 321 321 321 321 320 320 321 321 323 324 325 323
311 311 311 312 312 311 310 311 313 313 311 312 312 312 312 312 312 313 312 311 309 309 309 310 311 312 312 312 312 313 319 319 321 318 318 317 316 317 318 318 318 319 318
311 310 311 312 311 311 309 310 310 310 311 311 311 311 311 311 311 310 309 308 308 308 309 309 309 309 308 307 310 310 312 317 317 317 316 315 315 314 313 314 315 314 315
311 310 310 311 311 310 309 310 310 310 310 309 309 308 308 308 308 308 307 307 305 303 301 300 301 301 301 302 306 306 309 311 308 315 314 311 307 308 308 305 302 302 302
312 311 311 311 310 309 309 309 309 311 311 309 307 307 307 307 306 304 301 299 298 298 297 296 295 295 295 295 298 297 303 307 307 306 309 304 306 303 303 301 296 298 299
313 311 311 311 310 308 309 309 309 308 308 308 307 306 305 302 299 298 298 297 297 297 296 296 296 295 295 295 294 294 294 296 307 304 303 297 296 296 296 297 304 303 300
312 312 312 311 309 308 309 309 308 308 308 306 305 301 299 299 299 298 298 297 297 296 296 296 295 295 295 294 294 294 293 294 296 296 295 294 295 295 295 300 298 300 301
Wind_Speed
7 6 3 2 3 3 3 2 3 3 3 4 4 5 5 6 6 7 7 7 7 6 6 5 3 3 3 3 3 5 5 4 4 4 2 1 2 1 2 3 2 3 3
7 2 2 3 3 2 2 1 1 2 3 4 4 5 5 6 6 6 7 6 6 5 4 4 4 3 3 2 3 3 5 5 4 3 2 3 5 2 4 4 2 2 5
2 3 5 3 2 2 1 1 1 1 2 2 3 4 4 5 6 6 6 6 5 4 3 3 4 4 5 5 4 4 5 5 3 2 2 3 4 5 2 4 5 8 9
2 3 3 2 3 3 2 1 1 2 3 3 4 4 4 4 6 6 6 6 6 6 6 6 7 6 7 7 5 6 6 6 4 2 2 3 6 9 9 10 11 11 10
2 2 0 1 2 2 3 3 2 3 3 5 6 7 7 7 7 7 7 7 8 8 8 7 8 8 8 9 9 7 7 7 6 5 5 4 7 11 11 10 10 9 9
2 3 2 1 1 1 3 4 4 5 6 7 10 10 10 9 9 10 10 10 10 10 10 9 9 8 9 9 10 10 9 9 8 8 6 5 11 14 12 10 10 9 8
3 1 1 2 3 3 5 6 7 7 7 7 10 12 11 11 12 12 12 12 12 12 12 11 11 10 10 10 11 12 13 13 11 10 10 8 15 15 12 12 11 11 9
3 1 2 3 5 6 7 8 9 10 10 12 13 14 13 12 12 12 13 13 13 13 14 13 13 13 12 12 13 14 15 16 15 13 11 13 16 18 16 15 13 12 11
2 1 3 6 7 8 9 10 11 12 13 14 15 14 14 13 14 14 14 14 15 14 15 16 16 16 15 16 16 16 17 18 19 18 16 13 17 19 18 17 16 14 12
1 3 4 6 7 8 9 10 10 11 13 14 15 15 14 13 13 14 14 15 15 15 16 17 18 18 18 19 19 19 19 20 22 21 20 19 18 23 22 19 18 17 15
3 4 6 6 7 7 8 9 10 10 10 12 13 14 13 12 12 13 15 17 17 18 19 20 20 20 20 21 21 20 19 21 22 23 23 18 17 22 23 22 21 20 18
3 5 5 6 7 8 9 9 10 9 10 10 11 11 10 10 12 14 15 13 14 13 15 17 17 19 20 19 18 15 18 21 23 20 19 21 19 24 26 24 23 23 22
3 5 6 8 8 9 9 9 9 8 10 10 11 11 10 10 11 11 10 9 11 13 12 12 15 15 17 17 17 18 19 20 22 22 24 25 25 26 28 27 26 26 25
3 5 7 8 10 11 12 11 10 8 9 10 10 12 10 8 9 9 8 8 9 9 12 14 15 16 15 15 17 22 24 23 21 23 23 25 27 27 28 30 28 27 28
4 6 8 10 11 13 13 12 10 8 8 11 11 11 11 10 11 11 11 10 9 9 9 12 14 15 18 19 20 19 17 22 26 28 26 26 27 27 30 31 31 29 29
4 6 8 10 12 14 14 13 11 9 8 10 10 8 8 8 8 9 8 7 8 8 9 10 12 13 14 18 21 21 15 20 21 23 23 25 25 25 27 29 32 33 31
5 6 9 11 13 14 15 13 10 10 9 6 10 9 6 6 6 5 4 7 8 6 9 10 10 11 12 12 15 16 18 21 22 22 21 21 21 24 25 24 28 28 31
6 8 10 11 13 14 15 12 8 11 8 2 4 7 8 7 6 7 5 7 6 5 8 9 10 6 10 11 13 15 14 17 17 16 16 17 16 18 21 23 25 20 16
8 9 11 11 12 13 13 10 6 10 11 2 4 5 3 4 4 5 6 6 6 7 8 10 8 8 10 13 15 13 10 14 13 11 13 14 13 12 12 16 18 21 7
11 11 11 12 13 13 12 6 4 12 10 5 4 3 4 4 5 6 7 8 8 8 10 11 12 10 13 15 15 13 11 8 10 10 10 10 10 10 8 9 8 7 6
12 12 12 12 13 14 11 7 8 12 8 4 4 4 5 5 6 5 5 6 8 10 11 12 12 13 13 13 14 8 8 6 8 10 10 11 11 11 10 10 12 12 13
13 14 13 12 13 13 10 8 8 8 5 3 3 4 5 4 3 4 4 7 9 10 10 10 12 12 12 15 15 9 7 2 3 8 9 9 14 16 17 14 12 12 13
16 15 13 12 13 13 9 7 6 1 2 2 6 5 4 4 4 6 7 7 8 9 9 10 10 11 11 10 9 8 5 5 17 4 9 14 10 15 17 16 15 15 15
16 16 13 13 13 12 7 6 4 5 6 7 5 3 4 4 5 6 7 8 9 10 9 9 9 10 10 9 5 4 2 7 5 9 6 7 9 11 16 18 16 16 16
15 16 13 13 14 11 8 7 7 7 7 6 5 5 5 6 6 7 8 8 8 9 9 10 11 11 11 10 9 8 6 5 7 9 20 18 17 15 17 12 10 18 19
16 15 13 14 13 10 9 9 9 9 8 7 7 8 7 8 8 8 9 9 10 10 10 10 10 9 9 9 9 9 9 7 10 12 17 22 23 18 17 3 12 16 21
Wind_Direction
39 12 34 95 79 74 68 52 34 4 17 18 14 14 17 20 21 19 20 21 23 28 36 37 39 42 36 36 25 31 28 31 39 46 51 28 329 33 159 128 104 88 360
59 345 105 107 71 60 67 53 353 356 6 356 1 2 7 11 10 10 12 15 13 17 6 360 12 7 353 339 339 342 3 5 10 18 27 51 22 267 207 178 200 275 314
200 178 71 64 63 82 59 41 329 333 342 349 334 342 342 344 341 346 353 359 357 347 318 307 304 298 304 311 320 316 322 335 341 355 34 1 332 288 230 233 268 290 297
201 110 61 44 32 28 20 6 317 309 312 304 299 299 294 305 311 320 328 329 329 331 313 293 291 296 289 278 286 316 305 303 303 305 126 64 288 289 269 268 275 282 288
230 121 110 45 38 26 4 350 333 319 318 312 302 295 289 289 294 299 297 302 307 310 314 306 295 291 290 274 272 292 307 298 278 269 245 233 245 269 285 285 277 280 283
172 143 186 281 330 304 326 329 318 317 312 314 314 306 297 294 292 292 295 293 295 300 303 301 303 298 291 275 266 273 295 305 294 269 249 261 275 270 275 279 276 277 273
145 119 214 294 306 304 298 301 306 310 308 305 301 304 306 298 296 294 293 293 293 294 294 293 294 294 292 279 274 273 281 286 291 283 265 250 274 277 272 273 272 269 270
130 98 319 301 291 287 284 285 290 293 292 293 294 301 298 301 300 296 293 293 291 289 290 290 289 290 288 283 278 275 275 277 280 279 274 257 263 266 273 273 272 264 266
135 328 321 315 311 300 289 285 284 283 286 288 290 294 294 298 302 298 297 289 288 288 289 290 289 286 285 282 279 278 277 279 278 277 275 264 277 277 270 269 271 269 264
294 310 308 306 306 306 304 303 297 293 292 290 288 288 289 295 300 300 300 288 293 295 297 299 297 294 289 286 283 282 281 279 278 279 272 265 247 265 270 268 266 269 265
289 307 313 318 321 323 317 327 318 315 309 302 301 298 296 280 268 269 278 299 297 294 293 291 292 292 294 293 288 285 286 281 283 285 277 271 260 268 276 271 265 263 260
286 317 330 333 334 334 333 332 325 328 322 319 313 315 308 294 285 280 281 282 303 308 310 309 292 288 290 296 300 287 279 281 280 281 274 271 262 266 266 275 270 261 259
296 325 338 343 344 344 338 333 327 323 319 311 308 310 309 305 298 300 295 283 277 281 294 304 300 309 307 284 288 284 280 284 277 273 276 274 269 263 264 268 271 264 258
302 333 345 347 348 346 337 332 323 315 318 309 301 301 312 305 304 305 305 294 293 294 284 275 275 273 272 286 295 294 278 283 281 273 275 276 275 269 264 268 267 265 261
308 332 344 347 348 346 340 336 325 312 299 299 307 309 306 308 308 308 302 294 281 277 285 286 283 283 285 278 266 267 280 288 282 282 284 281 282 277 273 267 266 266 263
288 324 336 339 341 342 341 340 334 322 306 303 316 334 316 312 316 324 327 327 315 291 287 296 300 297 294 288 291 285 278 277 283 284 289 282 285 282 280 280 271 264 264
287 312 328 335 339 342 342 339 335 319 323 344 338 345 341 337 339 350 3 353 330 356 320 290 286 291 312 320 314 315 294 278 279 286 294 298 287 282 282 274 270 276 272
278 304 317 328 332 337 334 329 325 302 325 356 322 334 342 346 353 347 343 347 8 339 335 340 355 327 319 316 315 335 336 332 308 300 302 299 297 295 284 284 288 288 282
276 289 305 315 320 329 328 325 333 303 320 39 310 305 328 340 0 11 8 7 3 346 350 346 341 337 323 326 337 345 351 350 343 314 296 300 301 295 298 294 293 294 251
265 281 296 304 315 326 324 327 296 293 313 320 317 325 347 359 352 353 355 357 9 5 7 2 2 346 344 346 345 338 336 329 319 330 321 320 342 343 349 326 289 259 309
264 279 288 300 313 321 315 289 239 273 292 300 317 332 327 333 326 342 346 4 7 2 4 3 0 359 359 352 351 2 50 277 309 341 344 342 338 329 318 305 301 297 299
266 276 283 293 310 315 302 282 280 301 312 344 332 327 325 337 1 8 4 352 0 7 1 359 3 7 6 5 9 0 346 310 336 360 337 349 335 326 326 315 302 299 290
265 271 278 294 307 311 297 281 287 277 352 344 304 315 322 340 344 343 349 2 355 345 348 354 355 353 354 6 3 13 348 328 330 309 344 358 350 335 322 326 318 311 307
261 265 275 291 305 304 286 268 256 221 226 270 286 318 337 334 344 349 345 339 336 333 337 346 351 352 349 352 348 326 257 278 311 308 247 312 292 323 312 319 312 309 307
253 259 273 291 302 292 271 259 244 234 248 259 275 282 292 319 325 327 325 322 315 319 331 341 344 345 341 340 335 329 312 284 254 279 303 303 295 304 303 321 316 306 308
245 263 279 287 292 278 261 253 245 246 250 254 263 286 306 309 309 307 306 309 315 322 330 332 331 332 332 330 328 323 319 309 271 288 296 306 312 322 319 316 311 301 305